Regional Weather Roundup
Issued by NWS Green Bay, WI

Home | Current Version | Previous Version | Graphics & Text | Print | Product List | Glossary Off
Versions: 1 2 3 4 5 6 7 8 9 10 11 12 13 14 15 16 17 18 19 20 21 22 23 24 25 26 27 28 29 30 31 32 33 34 35 36 37 38 39 40 41 42 43 44 45 46 47 48 49 50

000
ASUS43 KGRB 041111
RWRGRB

NORTH-CENTRAL AND NORTHEAST WISCONSIN REGIONAL WEATHER ROUNDUP
NATIONAL WEATHER SERVICE GREEN BAY WI
600 AM CDT FRI SEP 04 2015

WIZ005-009-010>012-018-019-041200-
NORTH CENTRAL WISCONSIN

CITY           SKY/WX    TMP DP  RH WIND       PRES   REMARKS
IRONWOOD       CLEAR     61  61 100 CALM      30.01R
MANITOWISH WTR FOG       54  54 100 CALM      30.05S VSB 1/2
ARBOR VITAE    FOG       57  56  97 W3        30.06R VSB 1/2
EAGLE RIVER    FOG       55  55 100 CALM      30.06R VSB 3/4
LAND O LAKES   FOG       53  53 100 CALM      30.08R VSB 1
RHINELANDER    FOG       57  57 100 CALM      30.07R VSB 3/4
PHILLIPS       FOG       58  58 100 CALM      30.04R VSB 1
ANTIGO         CLEAR     56  56 100 NE5       30.05S FOG
TOMAHAWK       FOG       51  50  97 CALM      30.06R VSB<1/4
MERRILL        FOG       52  52 100 CALM      30.05S VSB 1
$$

WIZ013-073-041200-
NORTHEAST WISCONSIN

CITY           SKY/WX    TMP DP  RH WIND       PRES   REMARKS
IRON MOUNTAIN  CLEAR     57  56  96 N5        30.04S
MARINETTE      CLEAR     61  57  88 N6        30.01R
OCONTO         CLEAR     62  62 100 N5        30.01R
$$

WIZ017-030-035>037-045-041200-
CENTRAL WISCONSIN

CITY           SKY/WX    TMP DP  RH WIND       PRES   REMARKS
MEDFORD        PTCLDY    61  60  99 E3        30.04R
WAUSAU         CLEAR     60  59  96 CALM      30.03R
MOSINEE        CLEAR     59  59 100 E6        30.04R FOG
MARSHFIELD     PTCLDY    63  60  90 SE3       30.03R FOG
WISC RAPIDS    PTCLDY    64  61  90 CALM      30.03S
STEVENS POINT  MOCLDY    57  57 100 CALM      30.03S FOG
WAUPACA        CLOUDY    65  65  97 CALM      30.03R FOG
SHAWANO        NOT AVBL
CLINTONVILLE   CLOUDY    63  61  94 CALM      30.03R
WAUTOMA        CLOUDY    64  64 100 CALM      30.03R FOG
$$

WIZ038-039-048-051-041200-
FOX VALLEY

CITY           SKY/WX    TMP DP  RH WIND       PRES   REMARKS
NWS GREEN BAY  NOT AVBL
APPLETON       CLOUDY    64  64 100 N6        30.00R
OSHKOSH        CLOUDY    68  64  87 NE7       30.01R
FOND DU LAC    CLOUDY    66  64  93 E5        30.02R
$$

WIZ022-050-052-041200-
EAST CENTRAL WISCONSIN

CITY           SKY/WX    TMP DP  RH WIND       PRES   REMARKS
EPHRAIM        FAIR      64  63  99 N3        30.00S
STURGEON BAY   MOCLDY    63  59  88 N3        30.03R VSB 1
MANITOWOC      CLOUDY    67  65  93 MISG      30.00R
SHEBOYGAN      LGT RAIN  67  65  93 NW3       30.00R
$$

LMZ563-521-522-541>543-041200-
LAKESHORE

STATION/POSITION TIME  TEMP    WIND        PRES    VSBY  WAVE
                       AIR SEA DIR/SP/G                  HT/PER
                 (UTC) (F)     (DEG/KT/KT) (MB)    (MI)  (FT/S)
SHEBOYGAN LKSHOR 1100   64     350/ 10/ 11 1016.1R
KEWAUNEE LKSHORE 1000   64      20/  8/ 12 1014.6R
ALGOMA MARINA    1044          350/  6/  7   N/A
NORTHPORT PIER   1000   66     350/  7/ 22 1015.9S
N MID LAKE BUOY  1050   68 66   20/ 12/ 14 1015.6R         1/ 3
S GREEN BAY BUOY 1000   65 66   20/ 12/ 16 1017.1S
SISTER BAY LKSHO 1011   66      30/  6/  9   N/A
CHAMBERS ISLAND  1000   64     360/  8/  9 1015.9
MENOMINEE LKSHOR 1000   64      10/  8/  9 1014.9S
$$



USA.gov is the U.S. government's official web portal to all federal, state and local government web resources and services.